Regional Weather Roundup
Issued by NWS

Home | Current Version | Previous Version | Text Only | Print | Product List | Glossary Off
Versions: 1 2 3 4 5 6 7 8 9 10 11 12 13 14 15 16 17 18 19 20 21 22 23 24 25 26 27 28 29 30 31 32 33 34 35 36 37 38 39 40 41 42 43 44 45 46 47 48 49 50

000
ASUS43 KMPX 242101
RWRMN
WEATHER ROUNDUP FOR MINNESOTA
NATIONAL WEATHER SERVICE TWIN CITIES/CHANHASSEN MN
400 PM CDT FRI APR 24 2015


NOTE: "FAIR" INDICATES FEW OR NO CLOUDS BELOW 12,000 FEET WITH NO
SIGNIFICANT WEATHER AND/OR OBSTRUCTIONS TO VISIBILITY. N/A MEANS
CURRENT SKY AND/OR WEATHER CONDITIONS ARE NOT AVAILABLE.

MNZ060>063-068>070-242200-
   Twin Cities Metro

CITY           SKY/WX    TMP DP  RH WIND       PRES   REMARKS
TWIN CITIES    LGT RAIN  47  39  74 SE18G24   29.82F
ST PAUL        LGT RAIN  49  36  61 SE16G24   29.84F
CRYSTAL        CLOUDY    50  37  61 SE14G23   29.80F
BLAINE         CLOUDY    52  39  62 SE10      29.81F
LAKEVILLE      LGT RAIN  45  39  81 SE14      29.82S
EDEN PRAIRIE   LGT RAIN  46  40  79 SE20      29.79F
SOUTH ST PAUL  CLOUDY    49  35  58 SE6       29.83F
LAKE ELMO      CLOUDY    50  34  53 SE9G17    29.84F
$$
MNZ001>005-007-008-013>017-022>024-027-028-242200-
   Northwest Minnesota

CITY           SKY/WX    TMP DP  RH WIND       PRES   REMARKS
BEMIDJI        CLOUDY    44  32  62 E14G23    29.80S
HALLOCK        CLOUDY    54  34  47 E13G22    29.77S
ROSEAU         CLOUDY    46  30  53 E10       29.83S
WARROAD        CLOUDY    43  32  65 E14       29.85F
THIEF RVR FALL CLOUDY    46  34  61 E17       29.78F
CROOKSTON      PTSUNNY   52  39  62 SE14      29.75F
FOSSTON        CLOUDY    50  36  57 E12G18    29.77S
DETROIT LAKES  CLOUDY    46  37  71 SE20      29.75S
MOORHEAD       CLOUDY    52  39  62 SE12      29.72S
PARK RAPIDS    CLOUDY    46  33  60 E13       29.77F
MAHNOMEN       CLOUDY    49  38  65 SE14G21   29.74S
$$
MNZ006-009>011-018-025>026-242200-
   North Central Minnesota

CITY           SKY/WX    TMP DP  RH WIND       PRES   REMARKS
BAUDETTE       CLOUDY    41  31  67 SE14      29.87S
FLAG ISLAND    CLOUDY    41  27  56 E10G17    29.87S
INTL FALLS     CLOUDY    41  22  46 E12       29.90F
WASKISH        CLOUDY    45  32  61 E10G17    29.85S
BIG FORK       CLOUDY    43  30  61 SE9G17    29.87F
LONGVILLE      CLOUDY    43  32  65 E7G18     29.82F
GRAND RAPIDS   CLOUDY    43  27  52 SE10G16   29.86F
CRANE LAKE     CLOUDY    43  18  36 CALM      29.94S
ORR            CLOUDY    45  14  29 SE7       29.88S
COOK           PTSUNNY   45  19  36 SE10G16   29.91S
WALKER         CLOUDY    42  32  67 E7G16     29.81S
$$
MNZ012-019>021-037-242200-
   Northeast Minnesota

CITY           SKY/WX    TMP DP  RH WIND       PRES   REMARKS
DULUTH         CLOUDY    39  29  67 E14       29.93S
ELY            CLOUDY    41  12  30 SE9       29.94S
HIBBING        CLOUDY    43  26  51 SE15      29.90F
EVELETH        PTSUNNY   43  25  49 SE7G17    29.93S
DULUTH HARBOR  CLOUDY    37  34  87 NE20      29.96F
TWO HARBORS    CLOUDY    43  27  52 E12       29.95F
SILVER BAY     CLOUDY    37  21  52 NE12      29.97R
GRAND MARAIS     N/A     37  24  59 NE9       30.02F
G MARAIS ARPRT MOSUNNY   37   9  30 E8        29.98S
$$
MNZ029>031-032-039>041-046>048-054>057-064-242200-
   West Central Minnesota

CITY           SKY/WX    TMP DP  RH WIND       PRES   REMARKS
FERGUS FALLS   CLOUDY    48  37  66 SE15G22   29.72S
WHEATON        PTSUNNY   54  45  71 E23G29    29.68S
MORRIS         MOSUNNY   54  45  71 SE26G32   29.68S
ALEXANDRIA     LGT RAIN  45  40  82 SE14G25   29.74F
ELBOW LAKE     CLOUDY    47  41  78 SE15      29.71S
WADENA         CLOUDY    43  36  75 SE17      29.76F
GLENWOOD       PTSUNNY   45  41  87 SE16G24   29.74S
APPLETON       MOSUNNY   57  43  58 SE22G30   29.66F
BENSON         PTSUNNY   54  39  58 SE22G30   29.70S
ORTONVILLE     FAIR      55  43  62 SE17G25   29.64F
MADISON        PTSUNNY   55  41  58 SE23      29.65S
WILLMAR        FAIR      48  43  81 SE22      29.74S
$$
MNZ033>034-036-042>043-049>051-058-059-242200-
   Central Minnesota

CITY           SKY/WX    TMP DP  RH WIND       PRES   REMARKS
ST CLOUD       CLOUDY    44  40  85 E8        29.78S
SAUK CENTRE    CLOUDY    43  40  87 E12       29.76R
PAYNESVILLE    CLOUDY    43  40  89 E14G24    29.75F
AITKIN         CLOUDY    45  34  65 E8        29.83S
PINE RIVER     CLOUDY    45  34  65 SE9G20    29.84F
BRAINERD       CLOUDY    44  32  62 SE8G22    29.82S
STAPLES        CLOUDY    45  34  65 SE13G18   29.78F
LONG PRAIRIE   CLOUDY    43  39  87 E10G16    29.77S
LITTLE FALLS   CLOUDY    43  36  75 E12G24    29.79S
LITCHFIELD     CLOUDY    46  45  93 SE18G25   29.76F
BUFFALO        CLOUDY    46  40  77 E14G22    29.79F
MAPLE LAKE     CLOUDY    47  43  85 SE13G22   29.77F
$$
MNZ037-044-045-052-053-242200-
   East Central Minnesota

CITY           SKY/WX    TMP DP  RH WIND       PRES   REMARKS
PRINCETON      LGT RAIN  46  41  81 E7        29.81S
MORA           CLOUDY    45  34  65 E7G17     29.84F
CAMBRIDGE      LGT RAIN  50  37  62 SE9G17    29.80F
RUSH CITY      CLOUDY    50  28  42 SE9G18    29.83F
MOOSE LAKE     CLOUDY    39  32  75 CALM      29.87F
HINCKLEY       CLOUDY    46  32  57 E14G22    29.85F
CLOQUET        CLOUDY    37  32  81 E14       29.91S
MCGREGOR       CLOUDY    41  34  75 E14       29.87F
$$
MNZ071>073-080-081-089-090-097-098-242200-
   Southwest Minnesota

CITY           SKY/WX    TMP DP  RH WIND       PRES   REMARKS
MONTEVIDEO     PTSUNNY   54  45  71 S21G26    29.69F
GRANITE FALLS  PTSUNNY   51  41  69 E18G28    29.70F
CANBY          PTSUNNY   58  43  56 SE23G29   29.64S
MARSHALL       CLOUDY    54  41  62 SE20G26   29.65F
REDWOOD FALLS  CLOUDY    49  42  77 SE17G24   29.70F
OLIVIA         CLOUDY    46  37  71 SE20G28   29.71F
PIPESTONE      PTSUNNY   61  48  63 S15G21    29.61F
WINDOM         CLOUDY    48  45  87 SE15G23   29.69F
WORTHINGTON    CLOUDY    54  45  71 SE18      29.65F
JACKSON        CLOUDY    50  43  76 SE17G24   29.68F
TRACY          CLOUDY    53  45  73 SE16      29.67F
SLAYTON        CLOUDY    53  47  82 E16       29.66F
$$
MNZ065>067-074>077-082>085-091>093-242200-
   South Central Minnesota

CITY           SKY/WX    TMP DP  RH WIND       PRES   REMARKS
MANKATO        CLOUDY    45  37  76 SE14      29.78R
NEW ULM        CLOUDY    46  43  87 SE15G23   29.74F
ST JAMES       CLOUDY    48  43  81 SE20      29.73F
FAIRMONT       CLOUDY    46  16  29 SE18G28   29.70F
GLENCOE        RAIN      47  42  85 E17G25    29.77S
FARIBAULT      CLOUDY    46  39  76 E16G22    29.80F
OWATONNA       LGT RAIN  45  39  81 SE13G20   29.79F
ALBERT LEA     LGT RAIN  43  43 100 SE15G26   29.77S
$$
MNZ078>079-086>088-094>096-242200-
   Southeast Minnesota

CITY           SKY/WX    TMP DP  RH WIND       PRES   REMARKS
ROCHESTER      LGT RAIN  43  40  89 SE18      29.83R FOG
RED WING       CLOUDY    52  34  50 SE15      29.83F
STANTON        RAIN      47  39  74 SE12G21   29.81S
DODGE CENTER   LGT RAIN  45  41  87 SE17G24   29.81S
WINONA         DRIZZLE   48  34  57 SE13      29.87S
AUSTIN         RAIN      43  39  87 SE17G25   29.79F
PRESTON        CLOUDY    42  38  87 SE15      29.84F FOG
$$
ABBREVIATIONS USED IN REMARKS
   TC - TEMPERATURES IN CELSIUS
  WCI - WIND CHILL INDEX
   HX - HEAT INDEX
  VSB - VISIBILITY
$$



USA.gov is the U.S. government's official web portal to all federal, state and local government web resources and services.